This is the latest recevied weather packets stored in our database for station/object KD4EG. If no packets are shown the sender has not sent any weather packets the latest 10 day(s).
| Time | Temp. | Humidity | Pressure | Rain* | Wind** | Luminosity | Snow |
|---|---|---|---|---|---|---|---|
| 1777920111 | 22.78° C | 45% | 1015.4 hPa | 0 mm | - | 410 W/m² | - |
| 1777919808 | 21.67° C | 47% | 1015.2 hPa | 0 mm | - | 616 W/m² | - |
| 1777919505 | 21.67° C | 47% | 1015.6 hPa | 0 mm | - | 310 W/m² | - |
| 1777919203 | 21.67° C | 47% | 1015.7 hPa | 0 mm | - | 371 W/m² | - |
| 1777918900 | 21.67° C | 47% | 1015.6 hPa | 0 mm | - | 185 W/m² | - |
| 1777918598 | 21.67° C | 47% | 1015.8 hPa | 0 mm | - | 275 W/m² | - |
| 1777918295 | 21.67° C | 46% | 1015.8 hPa | 0 mm | - | 142 W/m² | - |
| 1777917994 | 21.67° C | 46% | 1015.9 hPa | 0 mm | - | 325 W/m² | - |
| 1777917692 | 21.67° C | 46% | 1016 hPa | 0 mm | - | 217 W/m² | - |
| 1777917389 | 21.67° C | 46% | 1015.8 hPa | 0 mm | - | 248 W/m² | - |
| 1777917086 | 21.67° C | 46% | 1016.2 hPa | 0 mm | - | 298 W/m² | - |
| 1777916784 | 22.22° C | 45% | 1016.3 hPa | 0 mm | - | 393 W/m² | - |
| 1777916480 | 22.22° C | 44% | 1016.3 hPa | 0 mm | - | 724 W/m² | - |
| 1777916178 | 22.78° C | 43% | 1016.2 hPa | 0 mm | - | 416 W/m² | - |
| 1777915875 | 22.22° C | 44% | 1016.3 hPa | 0 mm | - | 770 W/m² | - |
| 1777915571 | 22.22° C | 44% | 1016 hPa | 0 mm | - | 757 W/m² | - |
| 1777915268 | 21.11° C | 45% | 1016.5 hPa | 0 mm | - | 778 W/m² | - |
| 1777914964 | 22.22° C | 45% | 1016.5 hPa | 0 mm | - | 316 W/m² | - |
| 1777914662 | 22.22° C | 44% | 1016.5 hPa | 0 mm | - | 718 W/m² | - |
| 1777914357 | 22.22° C | 43% | 1016.5 hPa | 0 mm | - | 743 W/m² | - |
| 1777914055 | 21.67° C | 44% | 1016.6 hPa | 0 mm | - | 738 W/m² | - |
| 1777913750 | 21.67° C | 46% | 1016.4 hPa | 0 mm | - | 744 W/m² | - |
| 1777913448 | 21.67° C | 45% | 1016.6 hPa | 0 mm | - | 702 W/m² | - |
| 1777913144 | 21.11° C | 47% | 1016.8 hPa | 0 mm | - | 689 W/m² | - |
| 1777912841 | 21.11° C | 46% | 1016.7 hPa | 0 mm | - | 695 W/m² | - |
* Rain latest hour (hover to see other rain measurements)
** Current wind speed in m/s (hover to see current wind gust speed)